星链-35763(STARLINK-35763)

导读 | 豆包AI

STARLINK-35804是美国太空探索技术公司(SpaceX)于2025年11月6日发射的星链(Starlink)系列卫星。星链项目旨在构建全球卫星互联网星座,为全球偏远地区等提供高速低延迟宽带网络,覆盖远洋、灾害应急、商业科研等多场景,弥补地面网络覆盖不足,该卫星是SpaceX星链巨型星座计划的组成部分,助力完善全球卫星互联网服务覆盖。

Basic Information
目录编号:
66371
目录名称:
STARLINK-35804
国际标识:
2025-254Z
轨道中心:
EARTH
卫星名称:
星链-35763
卫星全名:
星链-35763(STARLINK-35763)
卫星状态:
在轨 (已飞行128 天)
发射日期:
2025-11-06 UTC
国别 :
美国 (US)
星等 :
--
Orbit Information
数据来源 国际轨道数据 AOE轨道数据
星历时间 2026-03-14T02:38:12+0800
14小时前
查看轨道信息
2026-03-11T06:00:00+0800
3天前
查看轨道信息
半长轴 6853.304km 6853.375km
偏心率 0.0000095 0.0001641
轨道倾角 53.160° 53.165°
近地点辐角 331.287° 116.216°
升交点赤经 211.133° 224.431°
平近点角 28.812° 320.963°
近地点 475.101km 474.113km
远地点 475.233km 476.363km
周期 94.104分钟 94.106分钟
每日圈数 15.302163 15.301926
Detailed Information
固有亮度:
5
最大亮度:
2.5
卫星平台:
Starlink V1.0
覆盖范围:
全球
运营商:
太空探索技术公司
运营商所在国:
美国
制造商(研发单位):
太空探索技术公司
制造商所在国:
美国
使用方式:
暂无
Satellite Introduction
Starlink 计划是 SpaceX 推出的全球卫星互联网项目,通过发射低轨道卫星,为全球尤其是偏远地区提供高速、低延迟的互联网服务。自 2019 年起,Starlink 已部署数千颗卫星,旨在缩小全球数字鸿沟,推动互联网普及。该项目还为军事、航空等行业提供通信支持,带来广泛经济效益。
2D Orbit Map
3D Orbit Map
Orbit Altitude Analysis Chart
Orbit Inclination Analysis Chart
Orbit Comprehensive Analysis Chart
View Comprehensive Chart